Helicity
53 57 57 59 58 64 73 81 61 91 89 72 74 87 89 89 110 115 159 204 225 216 175 101 88 105 59 80 54 -12 -14 22 7 16 29 24 36 25 61 76 123 91 5 -21 54 162 127 142 310 243 241 356 218 199
56 60 67 68 65 63 79 77 71 80 87 69 66 92 85 103 85 94 136 190 166 189 189 61 56 51 89 64 40 51 18 -5 -7 12 23 42 36 50 40 85 34 135 157 214 70 75 176 199 173 146 177 202 277 267
64 74 77 71 72 69 79 78 74 67 71 56 68 85 97 92 74 64 120 180 196 174 146 61 43 18 91 109 46 78 58 39 4 3 -23 12 16 39 8 25 51 62 58 133 177 140 182 206 260 160 281 205 50 104
75 82 85 88 88 86 85 62 72 40 46 51 64 86 82 53 46 51 103 144 148 157 138 61 70 19 30 57 52 85 75 9 -1 -42 6 17 36 -11 5 13 24 26 48 63 93 94 105 104 148 234 171 205 260 220
84 91 94 102 99 110 77 65 70 21 29 60 69 79 45 8 42 64 87 89 120 137 166 149 69 27 -2 22 46 63 86 65 36 22 51 116 58 27 53 -10 3 16 23 41 62 36 61 101 89 131 147 158 201 94
89 93 98 98 94 94 62 65 50 30 35 74 59 38 4 20 81 61 62 80 76 101 101 80 55 51 34 16 41 76 62 61 54 81 179 145 174 96 153 267 274 121 56 55 15 45 55 53 56 96 288 140 198 121
98 90 85 78 59 53 53 60 49 33 71 68 33 14 14 85 20 29 50 87 138 96 115 92 100 133 108 126 142 119 107 154 183 337 580 620 519 368 509 685 807 375 162 62 14 81 49 34 32 50 82 107 71 57
91 88 78 55 38 52 42 43 47 54 62 39 32 81 97 53 40 30 50 134 171 111 123 152 143 172 207 179 265 286 318 293 355 452 489 531 422 486 551 589 569 540 420 184 60 70 3 55 60 106 84 157 84 91
79 75 52 40 39 43 45 57 51 50 60 16 71 68 72 48 49 40 88 71 128 149 176 253 246 201 249 264 232 302 345 357 300 474 477 333 333 446 788 494 101 6 42 138 43 -46 -15 -13 38 120 87 146 105 56
81 59 48 47 47 69 83 69 44 44 22 54 53 51 106 99 122 122 150 124 140 232 286 372 351 339 314 353 311 243 274 289 290 345 403 525 500 638 679 493 243 22 2 84 58 75 58 61 143 90 19 48 24 91
75 64 62 83 101 123 111 67 52 34 46 33 54 69 30 21 121 141 122 163 207 191 300 353 407 369 348 341 305 270 219 213 289 255 380 530 538 409 718 416 324 167 205 194 17 17 24 99 30 111 82 226 179 205
68 77 90 99 146 155 102 45 43 53 5 -44 26 55 82 109 120 144 159 147 120 149 249 271 229 287 265 292 210 218 198 171 149 190 271 345 425 260 305 345 328 406 231 294 412 203 192 431 397 336 428 377 259 189
82 87 112 135 188 157 72 17 22 -0 74 111 118 78 44 102 127 161 184 125 103 138 183 185 126 107 127 170 128 87 62 72 116 100 167 172 134 106 143 124 92 183 247 286 402 411 375 265 332 298 284 286 277 399
109 114 123 142 222 134 58 5 25 55 36 46 95 52 -42 96 155 183 169 140 108 166 187 131 87 70 59 49 41 43 97 26 -11 24 -0 70 56 71 14 -9 -35 9 8 58 76 94 139 125 141 236 241 232 246 266
98 106 101 117 141 123 81 13 96 109 30 11 -2 -24 68 175 187 149 92 78 21 42 71 45 55 4 2 38 11 29 19 -63 -44 -61 -16 42 38 20 49 -10 -67 -78 -41 -54 -64 -41 -43 -19 -7 73 59 52 83 66
90 92 43 37 74 85 74 12 18 50 54 36 -2 24 40 -4 -20 -16 36 -31 -31 14 -15 42 65 36 48 5 -16 -30 -48 -25 19 24 31 46 38 1 -10 -17 -17 -40 -50 -37 -22 -14 6 26 5 -8 21 28 37 36
63 34 18 36 64 107 67 24 10 15 -5 1 18 8 12 6 -20 -20 -29 -30 -18 -5 50 94 79 46 17 37 44 38 59 82 -21 -3 -8 -14 -12 -12 7 9 14 11 5 -11 -18 -6 -9 -6 19 61 82 61 64 70
40 41 45 77 48 39 34 10 16 12 -3 11 17 22 24 25 11 -3 -12 -9 11 28 43 30 31 100 68 67 52 25 13 7 13 18 15 32 38 39 6 4 18 12 16 16 18 10 22 24 27 28 36 37 38 53
59 66 97 84 38 20 16 55 35 22 15 35 47 40 41 41 43 42 30 19 23 37 61 60 60 51 60 27 22 28 32 29 21 40 52 59 60 39 32 28 21 20 18 18 20 15 8 25 33 38 35 44 60 81
29 41 57 56 61 39 36 49 52 46 43 45 55 54 70 62 60 58 51 39 37 27 7 1 17 16 24 25 16 19 25 25 32 54 59 72 54 36 35 25 14 14 15 19 16 23 27 35 43 58 73 77 91 106
36 12 12 18 19 22 38 46 47 41 41 41 49 47 61 68 75 55 55 51 40 26 32 31 36 46 22 22 20 11 31 28 40 59 62 57 51 52 37 24 19 16 22 23 25 28 40 49 48 52 67 78 71 57
-4 6 10 13 33 50 50 34 33 49 41 35 41 40 51 56 59 69 39 65 54 64 66 64 75 58 73 59 35 25 24 15 36 46 59 65 70 59 46 35 26 22 19 18 25 35 46 62 61 59 55 37 20 26
18 19 24 25 32 33 41 41 43 50 38 48 44 42 51 54 69 47 60 64 88 90 76 76 87 77 71 88 68 58 31 23 41 47 46 43 60 62 52 51 39 33 29 29 27 26 31 24 33 38 34 38 41 45
30 -1 7 13 14 32 40 50 51 53 48 44 41 40 51 57 61 49 60 77 95 93 103 88 79 71 108 125 98 92 60 41 43 46 52 47 56 65 50 45 46 48 30 26 28 27 28 31 16 29 28 27 26 30
8 -7 1 3 21 30 42 54 59 53 47 45 39 49 65 57 40 57 58 90 91 88 92 90 80 75 57 64 92 112 89 49 47 46 63 40 43 48 60 52 47 52 33 38 45 42 42 36 36 29 27 30 29 27
12 12 15 19 26 20 31 39 48 49 47 55 57 67 72 59 54 59 71 75 74 82 80 66 65 59 91 116 73 96 110 68 47 47 71 48 55 58 59 57 57 74 31 19 25 32 37 37 36 30 28 22 -5 18
18 24 28 15 15 23 33 45 49 56 68 77 88 90 96 94 107 124 102 70 52 83 103 111 97 83 89 116 114 115 94 69 61 56 51 36 32 29 28 31 35 38 23 24 29 31 28 24 24 25 27 25 27 27
13 34 25 47 35 41 43 50 56 65 77 98 103 111 117 130 119 156 126 106 129 138 157 174 172 152 136 127 114 99 105 91 92 44 39 37 35 27 16 12 17 5 -3 19 22 12 13 17 18 19 22 21 23 23
35 41 42 44 52 63 58 63 60 79 90 105 96 102 113 128 118 137 151 146 117 111 146 174 204 209 181 147 120 85 85 77 91 81 57 55 49 51 28 21 16 15 10 18 74 29 29 24 24 13 10 11 16 20
43 53 34 42 55 55 61 71 68 84 91 78 99 105 96 110 133 125 132 152 112 124 151 181 210 162 169 134 157 167 124 80 76 67 61 52 48 40 33 25 19 13 10 7 17 54 34 19 28 12 4 5 8 11
49 44 32 34 45 38 50 71 80 82 91 99 101 68 73 102 115 101 91 110 101 110 149 181 190 182 162 155 134 111 114 171 113 71 36 32 34 36 28 20 15 15 17 18 19 21 15 6 12 11 8 6 5 1
57 53 53 42 34 67 64 82 85 79 86 69 59 68 78 84 90 113 80 76 89 115 159 150 165 246 177 150 121 97 68 70 95 73 53 36 28 26 18 25 25 22 24 23 24 27 24 25 29 22 18 15 13 22
53 46 36 40 59 65 92 75 82 76 80 68 72 89 88 87 124 136 89 84 111 142 163 177 205 190 166 131 103 90 56 68 106 93 69 46 34 27 24 30 39 24 23 25 26 29 30 29 24 20 16 14 15 11
Wind_Speed
38 37 36 39 38 39 38 37 33 32 34 39 43 43 41 36 35 21 16 12 11 10 3 2 6 9 11 15 17 18 18 27 36 38 44 52 63 61 75 75 77 81 93 104 106 118 134 75 79 82 58 62 61 60
37 36 36 39 40 39 37 34 35 36 34 39 41 40 35 34 27 17 6 15 20 10 7 10 17 27 29 30 27 26 28 26 31 36 36 39 52 53 62 78 66 99 93 96 94 107 87 73 89 81 72 77 73 73
36 36 35 38 39 40 35 33 35 39 34 38 40 39 34 28 21 12 15 20 21 12 3 10 15 14 19 28 36 30 28 32 31 32 32 33 44 52 65 71 79 85 80 99 106 116 112 96 95 98 92 90 83 80
33 33 34 36 37 37 32 32 32 44 33 36 36 39 30 17 16 13 20 23 22 22 15 16 18 12 13 19 28 35 35 28 29 29 32 29 33 38 53 64 75 74 76 90 105 110 106 108 108 107 101 96 102 99
29 31 34 36 37 33 29 29 30 47 29 31 38 36 20 6 24 26 27 25 24 25 19 7 6 20 19 25 26 29 33 34 31 25 25 22 23 27 40 55 82 74 93 102 108 90 93 100 97 102 105 98 94 91
30 32 34 35 33 29 27 28 33 36 28 31 39 31 11 18 35 33 36 34 27 27 25 24 24 24 23 23 21 24 27 27 25 21 19 19 26 25 14 29 50 59 79 87 99 94 97 91 88 91 99 95 93 89
31 32 32 32 28 25 24 26 34 29 24 39 41 31 33 40 39 40 37 34 33 34 29 22 25 31 23 18 21 23 26 25 22 17 13 11 13 14 15 31 54 57 67 87 92 84 92 88 91 84 86 86 83 79
29 29 30 29 28 22 20 27 35 30 22 39 44 46 49 46 44 39 42 43 41 36 34 31 27 28 32 24 26 34 33 30 25 19 16 17 18 17 3 23 35 45 50 72 75 93 85 78 73 77 74 75 71 67
27 29 29 29 26 17 19 29 33 24 20 38 40 42 36 35 35 40 46 46 37 35 29 29 31 34 25 34 32 37 37 36 35 35 35 30 28 39 26 33 19 34 32 23 22 42 66 69 70 70 62 63 61 60
25 26 29 22 15 16 22 29 27 12 26 40 35 29 36 34 45 44 37 31 28 30 31 40 35 36 31 36 40 39 46 50 48 42 38 39 44 32 50 51 36 65 49 53 61 61 56 61 63 56 47 51 46 37
22 23 17 13 14 17 22 23 13 16 39 30 33 39 37 37 32 28 27 33 35 36 37 39 39 30 35 38 40 43 38 35 48 44 38 40 44 64 60 52 41 38 22 17 56 58 51 38 41 55 53 22 19 18
17 16 11 12 15 19 18 11 11 34 40 28 36 37 33 32 26 25 27 33 34 36 31 33 34 33 32 38 41 39 40 38 40 27 46 40 47 48 54 60 67 64 58 43 31 33 28 33 22 18 17 17 16 14
12 10 12 15 13 15 13 11 31 36 45 43 35 37 41 32 37 38 32 34 29 24 27 15 20 30 32 32 37 49 41 35 26 31 38 33 36 44 45 47 55 61 60 57 54 51 41 44 34 30 30 29 31 26
16 9 7 7 11 10 12 28 41 41 34 43 47 38 55 37 28 27 11 14 20 15 5 16 34 36 32 37 36 35 31 9 10 12 25 27 38 37 39 37 45 50 52 55 49 50 49 48 44 40 34 32 37 41
21 16 4 15 21 15 12 48 45 42 46 47 50 56 44 28 32 26 17 18 19 16 22 36 41 52 50 46 44 39 36 4 13 28 19 21 29 32 36 35 45 48 35 47 52 54 52 46 45 38 34 32 31 33
26 8 24 30 24 12 12 33 32 38 49 56 58 52 48 57 63 65 44 59 49 31 31 41 45 49 58 51 55 57 46 47 44 28 12 19 14 35 33 47 51 49 51 49 55 54 46 34 34 35 32 36 32 35
12 39 24 30 30 5 12 36 32 45 48 49 55 60 59 59 65 66 64 63 57 57 43 42 46 45 43 48 53 52 54 47 48 52 54 58 59 59 65 69 56 49 51 51 52 48 44 46 48 47 46 40 36 32
35 7 21 24 23 25 43 42 42 46 52 52 56 58 61 63 64 67 67 68 56 53 53 46 44 51 43 46 50 53 54 50 43 48 49 50 53 58 61 61 60 62 62 59 53 48 44 42 42 43 43 40 39 39
10 11 12 22 21 38 41 42 38 45 46 44 45 50 56 58 58 59 64 63 61 55 44 46 45 49 50 48 50 53 55 55 52 47 44 48 53 58 58 58 59 59 59 58 57 54 53 52 50 47 45 45 42 43
17 19 11 13 32 32 36 37 33 40 39 39 35 35 42 50 51 54 58 61 62 59 54 50 51 49 50 52 52 50 52 52 51 46 46 50 53 53 57 59 60 59 58 57 53 53 49 47 46 45 44 42 40 41
24 23 18 20 24 30 36 36 39 37 35 33 35 33 37 37 46 52 57 56 62 65 59 53 51 49 47 48 53 52 52 54 53 51 53 52 53 53 56 58 59 58 58 56 54 51 48 46 43 42 40 40 39 39
21 22 23 25 29 32 36 37 35 36 33 34 33 34 36 40 44 45 40 53 56 51 47 45 46 45 44 46 49 52 51 50 48 47 47 47 51 53 55 57 57 57 55 54 52 49 46 45 43 42 42 42 43 45
23 26 28 29 31 34 34 33 34 35 35 38 35 36 38 38 41 37 44 45 46 46 42 39 37 38 39 38 40 48 53 50 48 50 50 48 44 47 51 51 52 53 52 51 49 45 43 44 45 46 46 47 48 48
28 31 32 33 34 33 33 33 34 34 34 37 37 37 38 38 36 38 43 43 43 39 43 41 36 35 36 35 38 45 49 49 50 47 49 47 47 48 48 49 49 48 48 47 46 45 45 45 45 45 46 47 47 47
30 32 31 31 32 31 31 32 32 33 35 37 36 36 37 36 37 39 42 42 40 42 42 42 40 40 39 43 42 43 44 49 51 46 49 49 46 45 45 46 46 45 47 48 46 44 44 45 45 47 46 48 48 45
32 32 31 31 32 31 33 32 33 33 33 34 35 36 35 36 37 40 42 41 37 37 40 42 44 46 43 41 43 47 48 48 48 46 48 48 48 48 49 49 49 47 52 46 45 45 44 47 49 50 48 42 41 46
33 31 31 31 31 32 31 30 30 29 31 33 33 34 35 36 35 36 36 36 36 36 36 36 40 43 45 44 42 43 45 48 50 48 44 44 45 45 47 48 49 50 48 47 44 44 46 49 48 47 46 45 45 46
30 29 28 30 29 29 30 30 31 32 32 33 33 33 33 33 33 32 32 31 32 33 36 37 38 40 42 44 43 42 44 44 43 43 37 36 40 45 47 46 45 43 40 43 46 47 46 44 45 46 47 47 46 46
27 28 27 23 25 27 28 29 30 30 29 28 30 31 30 31 33 31 31 30 32 29 34 36 37 37 40 41 41 43 45 46 49 51 50 47 46 48 48 48 48 45 38 36 38 41 41 44 46 48 47 45 45 43
24 23 22 23 25 26 28 26 28 32 29 26 29 30 29 31 32 31 27 26 31 29 32 34 34 36 41 44 47 44 40 41 44 47 47 46 46 45 45 48 49 46 43 40 39 35 34 31 34 36 42 43 42 42
28 25 23 22 22 26 27 28 28 27 27 27 26 25 29 32 33 31 29 31 34 32 33 35 36 39 43 46 48 47 44 35 35 37 40 39 41 44 47 45 45 45 44 43 42 43 45 44 43 42 41 42 43 43
24 24 21 22 23 27 27 28 29 28 30 32 31 32 35 34 36 39 39 38 36 35 36 37 38 42 44 45 46 45 38 34 31 31 33 37 41 46 45 42 39 42 44 44 44 44 44 43 42 42 43 44 45 45
23 21 22 22 24 25 28 28 29 30 30 31 33 35 35 37 42 41 40 39 40 40 39 39 41 41 43 45 46 43 37 36 36 35 36 36 37 39 38 43 40 39 40 42 43 43 42 42 41 42 43 44 45 44
Wind_Direction
358 357 353 352 350 350 347 343 308 322 330 342 348 349 350 347 355 10 29 127 122 55 311 203 195 174 169 164 169 147 190 140 272 279 268 258 252 251 250 249 247 242 238 241 242 242 241 252 252 248 264 267 269 271
354 351 348 347 345 345 340 337 304 307 326 342 346 348 350 347 357 20 83 136 160 124 85 240 231 227 212 206 192 168 168 174 171 251 284 280 263 262 256 251 252 246 247 247 245 244 254 258 250 260 267 266 268 270
350 346 341 341 339 343 335 332 304 300 322 343 347 354 349 346 3 44 83 98 115 90 25 138 110 121 159 184 188 174 170 174 175 181 191 269 275 274 259 259 260 257 256 254 254 250 252 256 257 258 263 262 269 271
342 339 336 337 336 337 326 329 320 295 318 345 352 355 344 343 18 78 96 111 100 84 83 91 93 122 193 163 172 179 184 164 173 174 175 175 196 223 277 273 266 262 263 258 257 256 257 256 256 257 260 266 264 266
332 330 332 337 341 333 323 318 320 293 315 346 357 355 344 5 51 73 90 101 103 82 77 76 264 123 120 127 151 163 175 184 184 175 175 175 187 210 225 238 271 273 263 258 257 260 259 259 259 256 259 262 263 264
321 324 329 337 339 329 321 314 303 297 309 353 360 8 40 78 66 77 78 85 100 94 85 94 92 94 110 119 137 156 165 168 165 173 193 199 212 214 212 238 240 232 234 268 264 264 261 260 260 260 259 259 262 262
320 319 331 339 340 330 320 311 297 301 341 8 16 42 64 66 65 68 74 72 87 89 93 99 89 86 93 128 123 139 148 149 158 158 169 196 200 175 229 261 260 246 237 236 239 262 259 258 257 260 256 258 258 259
323 331 339 348 356 344 323 299 297 303 355 23 36 54 61 66 68 77 66 72 89 92 92 86 91 91 90 102 111 112 104 110 106 110 100 86 91 100 84 279 276 265 241 222 215 245 254 257 256 256 257 253 253 253
334 343 352 3 8 340 311 296 300 310 23 44 79 82 83 87 89 78 74 85 99 96 99 96 91 94 102 101 110 102 104 94 99 84 80 82 79 64 350 336 54 54 68 131 246 254 246 246 247 250 249 250 250 247
339 350 7 7 356 319 303 300 303 344 70 89 106 111 103 103 88 79 98 103 114 108 109 91 100 97 109 100 100 101 95 84 85 79 82 77 61 12 359 0 25 65 96 126 137 151 197 223 228 239 246 248 247 227
343 8 9 353 332 318 309 308 325 80 86 115 114 108 110 106 113 124 110 102 100 103 97 88 90 98 107 96 93 89 97 99 80 70 72 52 36 10 6 26 23 41 57 78 117 127 156 198 211 203 210 172 202 210
350 15 339 344 329 324 322 342 72 89 84 143 131 122 116 105 113 114 102 102 103 100 94 87 84 103 105 100 93 93 92 93 90 70 78 51 32 17 21 25 29 28 34 44 69 92 78 75 117 105 114 130 151 128
327 10 318 321 340 332 337 53 81 98 90 88 113 104 84 101 93 91 90 98 105 106 100 86 94 98 98 96 91 77 89 95 102 81 82 43 20 14 17 23 28 32 35 40 48 48 57 52 56 64 71 59 43 41
293 307 340 337 14 14 335 80 83 95 103 86 85 359 28 91 96 98 104 114 113 125 138 94 82 84 87 84 85 92 95 123 51 30 15 7 0 10 14 24 24 30 34 42 51 45 46 45 47 46 41 37 37 35
285 274 90 80 316 314 331 68 79 84 79 73 60 43 74 85 76 78 95 96 96 108 91 68 66 50 58 66 66 74 69 297 330 342 336 341 347 355 1 11 14 18 30 25 27 30 33 35 34 35 31 30 27 23
288 171 87 305 307 305 102 90 95 87 76 64 60 64 62 43 3 15 357 357 22 58 64 42 30 26 21 37 31 35 54 49 56 74 71 69 343 341 350 357 3 6 10 13 16 20 19 19 21 23 24 23 20 20
253 59 284 296 298 219 110 91 92 75 70 69 56 47 45 37 14 4 358 356 20 15 24 25 14 14 23 15 14 23 17 25 19 19 16 9 5 358 10 13 356 354 358 1 4 4 5 10 15 17 17 12 9 4
70 142 278 287 285 93 60 69 76 70 63 63 57 55 50 43 35 25 18 7 19 23 22 32 35 15 17 10 4 0 358 2 13 8 10 13 10 1 355 356 360 1 0 357 351 352 350 349 354 359 4 3 10 9
149 201 238 280 86 64 61 75 91 68 64 69 67 60 53 51 53 50 42 35 31 34 41 32 28 20 19 19 9 360 355 350 347 355 0 359 357 356 357 355 351 348 348 349 349 349 357 360 359 357 2 7 5 6
97 105 148 139 82 93 93 87 99 80 76 73 78 73 63 57 57 57 55 53 51 51 45 43 33 25 19 19 15 10 4 360 356 354 352 347 343 346 347 345 344 342 342 341 344 345 346 353 356 2 4 3 359 353
84 88 200 169 135 110 86 81 72 73 74 76 67 71 64 66 56 53 51 54 51 47 50 49 40 34 33 27 16 8 5 358 356 353 346 345 347 345 341 341 341 342 342 342 342 345 347 347 350 355 357 359 1 3
172 223 155 132 107 92 76 72 71 66 73 64 66 64 62 56 52 51 60 48 46 50 53 52 45 41 40 35 30 23 17 11 9 5 4 1 352 349 349 345 342 342 345 344 345 346 349 350 353 355 353 353 352 350
191 138 113 100 85 70 63 65 61 57 57 50 56 55 52 53 50 57 49 47 47 50 54 55 53 47 43 44 39 29 21 22 18 10 4 2 7 0 355 357 356 350 348 349 349 350 351 349 349 343 345 344 342 342
114 87 77 69 65 64 62 58 57 55 54 48 47 46 46 47 52 50 44 42 43 49 45 47 51 48 43 44 38 29 25 23 18 16 13 8 4 360 358 355 357 358 356 354 352 350 348 348 344 344 342 340 341 343
85 69 71 69 63 63 62 59 57 57 49 43 46 49 45 45 43 40 37 39 41 40 41 42 43 41 39 31 28 28 27 21 16 16 10 7 6 4 3 1 0 1 356 347 350 352 351 349 348 344 343 339 336 340
69 67 69 64 61 63 55 56 55 54 52 50 46 44 45 41 40 35 32 35 40 42 38 34 32 31 33 33 27 19 16 18 17 15 11 10 7 2 358 355 353 354 352 352 347 344 345 342 340 338 339 347 352 340
61 67 63 59 58 54 57 55 53 57 51 47 43 39 38 35 37 37 40 43 43 41 40 38 31 28 26 27 29 26 21 18 15 15 17 16 14 10 3 357 353 349 349 351 349 346 341 339 340 342 341 342 342 340
63 64 67 61 59 55 53 52 50 47 43 40 37 35 35 35 31 34 34 36 36 38 35 34 33 32 29 27 27 25 21 21 23 22 23 25 23 18 12 8 3 359 358 356 348 345 346 347 345 343 341 340 340 341
71 68 68 72 61 56 53 51 47 45 42 41 32 29 30 30 28 31 33 35 27 26 22 24 26 30 27 26 26 23 21 18 14 13 14 15 15 14 17 13 8 11 17 17 18 8 4 356 349 343 342 343 342 342
69 72 70 62 55 51 47 49 39 36 41 39 32 31 31 30 30 33 36 35 26 24 23 24 26 25 21 18 15 16 23 24 21 18 16 17 18 20 19 11 6 9 12 13 12 22 26 30 18 14 359 352 351 349
54 63 61 54 45 41 42 37 34 34 35 36 37 35 30 29 30 32 33 27 25 29 28 26 27 25 21 18 17 16 17 28 33 34 31 30 27 22 15 13 13 13 10 9 3 359 352 354 358 1 2 357 351 349
57 53 49 48 47 43 42 38 35 37 35 35 38 39 35 34 32 33 34 32 32 31 30 29 27 25 26 26 26 27 32 38 46 46 42 34 24 14 14 17 20 14 7 4 2 359 356 355 359 0 358 353 350 346
43 54 55 52 55 55 47 45 42 38 38 38 38 35 35 33 29 31 35 35 33 32 32 33 34 34 32 30 30 35 43 47 46 46 41 37 35 30 28 18 19 14 9 5 1 360 359 359 358 355 353 350 347 346